{"data":{"norad_id":66313,"intl_designator":"2025-250A","name":"YAOGAN-46","alt_names":[],"object_type":"PAYLOAD","status":"ACTIVE","operator":null,"country":"PRC","launch_date":"2025-11-03","launch_site_code":"WSC","launch_vehicle":null,"mission":null,"orbit_class":"UNKNOWN","rcs_meters":null,"size_class":null,"mass_kg":null,"dimensions":null,"purposes":[],"wikipedia_slug":null,"has_3d_model":false,"image_url":null,"decayed_at":null,"tle_current":{"epoch":"2026-09-20T04:04:01.581600Z","epoch_age_seconds":160213,"freshness":"FRESH","line1":"1 66313U 25250A   26263.16946275 -.00000022  00000+0  00000+0 0  9995","line2":"2 66313  20.0566 279.1474 0005223 263.3325  96.6261  5.31209609 17148","mean_motion":5.31209609,"eccentricity":0.0005223,"inclination_deg":20.0566,"raan_deg":279.1474,"arg_perigee_deg":263.3325,"mean_anomaly_deg":96.6261,"bstar":0,"rev_number":1714,"period_min":271.07943373065,"perigee_km":7489.3468411066,"apogee_km":7503.8403847048,"semimajor_km":13874.730612906,"source":"CELESTRAK","updated_at":"2026-09-21T09:00:15.906026Z"}}}